TimeCST,TemperatureF,Dew PointF,Humidity,Sea Level PressureIn,VisibilityMPH,Wind Direction,Wind SpeedMPH,Gust SpeedMPH,PrecipitationIn,Events,Conditions,WindDirDegrees,DateUTC
12:15 AM,23.0,17.6,80,30.05,10.0,SE,8.1,-,N/A,,Clear,140,2013-11-30 06:15:00
12:35 AM,21.2,17.6,86,30.05,10.0,SE,8.1,-,N/A,,Clear,130,2013-11-30 06:35:00
12:55 AM,21.2,17.6,86,30.03,10.0,SE,8.1,-,N/A,,Clear,140,2013-11-30 06:55:00
1:15 AM,21.2,17.6,86,30.02,10.0,SE,8.1,-,N/A,,Clear,130,2013-11-30 07:15:00
1:35 AM,21.2,17.6,86,30.01,10.0,SE,8.1,-,N/A,,Clear,130,2013-11-30 07:35:00
1:55 AM,21.2,17.6,86,30.01,10.0,SE,6.9,-,N/A,,Clear,130,2013-11-30 07:55:00
2:16 AM,21.2,17.6,86,30.01,10.0,SE,5.8,-,N/A,,Clear,130,2013-11-30 08:16:00
2:35 AM,21.2,17.6,86,30.01,10.0,SE,5.8,-,N/A,,Clear,130,2013-11-30 08:35:00
2:55 AM,21.2,17.6,86,30.02,10.0,SE,3.5,-,N/A,,Clear,140,2013-11-30 08:55:00
3:16 AM,19.4,15.8,86,30.01,7.0,SSE,4.6,-,N/A,,Clear,150,2013-11-30 09:16:00
3:35 AM,19.4,15.8,86,30.01,7.0,SE,3.5,-,N/A,,Clear,140,2013-11-30 09:35:00
3:55 AM,19.4,15.8,86,30.01,7.0,SE,3.5,-,N/A,,Clear,140,2013-11-30 09:55:00
4:16 AM,19.4,15.8,86,30.01,7.0,Calm,Calm,-,N/A,,Clear,0,2013-11-30 10:16:00
4:35 AM,19.4,15.8,86,30.01,7.0,Calm,Calm,-,N/A,,Clear,0,2013-11-30 10:35:00
4:55 AM,17.6,15.8,93,30.02,7.0,Calm,Calm,-,N/A,,Clear,0,2013-11-30 10:55:00
5:15 AM,19.4,17.6,93,30.01,7.0,Calm,Calm,-,N/A,,Clear,0,2013-11-30 11:15:00
5:35 AM,19.4,15.8,86,30.01,5.0,Calm,Calm,-,N/A,,Clear,0,2013-11-30 11:35:00
5:55 AM,17.6,15.8,93,30.02,5.0,Calm,Calm,-,N/A,,Clear,0,2013-11-30 11:55:00
6:15 AM,17.6,15.8,93,30.01,7.0,Calm,Calm,-,N/A,,Clear,0,2013-11-30 12:15:00
6:35 AM,17.6,15.8,93,30.01,5.0,Calm,Calm,-,N/A,,Clear,0,2013-11-30 12:35:00
6:55 AM,17.6,14.0,86,30.02,1.8,West,3.5,-,N/A,,Clear,280,2013-11-30 12:55:00
7:15 AM,17.6,14.0,86,30.03,7.0,West,3.5,-,N/A,,Clear,280,2013-11-30 13:15:00
7:35 AM,15.8,12.2,86,30.04,7.0,West,5.8,-,N/A,,Clear,280,2013-11-30 13:35:00
7:55 AM,19.4,15.8,86,30.03,5.0,West,3.5,-,N/A,,Clear,280,2013-11-30 13:55:00
8:15 AM,21.2,19.4,93,30.05,7.0,West,5.8,-,N/A,,Clear,280,2013-11-30 14:15:00
8:35 AM,23.0,19.4,86,30.05,7.0,NW,6.9,-,N/A,,Clear,310,2013-11-30 14:35:00
8:55 AM,24.8,19.4,80,30.06,7.0,WNW,6.9,-,N/A,,Clear,300,2013-11-30 14:55:00
9:15 AM,24.8,19.4,80,30.06,7.0,NW,5.8,-,N/A,,Clear,310,2013-11-30 15:15:00
9:35 AM,24.8,19.4,80,30.07,10.0,WNW,9.2,-,N/A,,Clear,300,2013-11-30 15:35:00
9:55 AM,26.6,19.4,74,30.07,10.0,WNW,8.1,-,N/A,,Clear,300,2013-11-30 15:55:00
10:15 AM,28.4,21.2,74,30.08,10.0,NW,9.2,-,N/A,,Clear,310,2013-11-30 16:15:00
10:35 AM,28.4,21.2,74,30.07,10.0,NW,8.1,-,N/A,,Clear,310,2013-11-30 16:35:00
10:55 AM,30.2,21.2,69,30.07,10.0,WNW,9.2,-,N/A,,Clear,300,2013-11-30 16:55:00
11:15 AM,33.8,21.2,60,30.07,10.0,WNW,11.5,-,N/A,,Clear,300,2013-11-30 17:15:00
11:35 AM,35.6,23.0,60,30.06,10.0,NW,10.4,-,N/A,,Clear,310,2013-11-30 17:35:00
11:55 AM,37.4,24.8,60,30.06,10.0,NW,11.5,-,N/A,,Clear,320,2013-11-30 17:55:00
12:15 PM,37.4,23.0,56,30.06,10.0,WNW,12.7,-,N/A,,Clear,300,2013-11-30 18:15:00
12:35 PM,35.6,23.0,60,30.07,10.0,NW,12.7,16.1,N/A,,Clear,310,2013-11-30 18:35:00
12:55 PM,37.4,23.0,56,30.06,10.0,WNW,9.2,-,N/A,,Clear,300,2013-11-30 18:55:00
1:15 PM,35.6,21.2,56,30.07,10.0,WNW,15.0,-,N/A,,Clear,290,2013-11-30 19:15:00
1:35 PM,35.6,21.2,56,30.07,10.0,NW,15.0,-,N/A,,Clear,310,2013-11-30 19:35:00
1:55 PM,35.6,21.2,56,30.07,10.0,WNW,16.1,-,N/A,,Clear,300,2013-11-30 19:55:00
2:15 PM,35.6,21.2,56,30.07,10.0,NW,18.4,-,N/A,,Clear,310,2013-11-30 20:15:00
2:35 PM,35.6,21.2,56,30.07,10.0,NW,16.1,-,N/A,,Clear,310,2013-11-30 20:35:00
2:55 PM,33.8,21.2,60,30.08,10.0,NW,16.1,-,N/A,,Clear,310,2013-11-30 20:55:00
3:15 PM,33.8,21.2,60,30.09,10.0,NW,13.8,-,N/A,,Clear,310,2013-11-30 21:15:00
3:35 PM,33.8,21.2,60,30.09,10.0,NW,16.1,-,N/A,,Clear,310,2013-11-30 21:35:00
3:55 PM,33.8,21.2,60,30.10,10.0,NW,13.8,19.6,N/A,,Clear,310,2013-11-30 21:55:00
4:15 PM,32.0,21.2,64,30.10,10.0,NW,13.8,-,N/A,,Clear,310,2013-11-30 22:15:00
4:35 PM,32.0,21.2,64,30.10,10.0,NW,13.8,-,N/A,,Clear,320,2013-11-30 22:35:00
4:55 PM,30.2,21.2,69,30.11,10.0,NW,10.4,-,N/A,,Clear,310,2013-11-30 22:55:00
5:15 PM,30.2,19.4,64,30.12,10.0,NW,11.5,-,N/A,,Clear,320,2013-11-30 23:15:00
5:35 PM,28.4,19.4,69,30.13,10.0,NW,10.4,-,N/A,,Clear,310,2013-11-30 23:35:00
5:55 PM,28.4,19.4,69,30.13,10.0,WNW,9.2,-,N/A,,Clear,300,2013-11-30 23:55:00
6:15 PM,28.4,19.4,69,30.14,10.0,NW,10.4,-,N/A,,Clear,310,2013-12-01 00:15:00
6:35 PM,28.4,19.4,69,30.14,10.0,NW,9.2,-,N/A,,Scattered Clouds,320,2013-12-01 00:35:00
6:55 PM,28.4,19.4,69,30.15,10.0,NW,11.5,-,N/A,,Mostly Cloudy,320,2013-12-01 00:55:00
7:15 PM,28.4,21.2,74,30.15,10.0,NNW,9.2,-,N/A,,Scattered Clouds,330,2013-12-01 01:15:00
7:35 PM,26.6,19.4,74,30.16,10.0,NW,8.1,-,N/A,,Clear,320,2013-12-01 01:35:00
7:55 PM,26.6,19.4,74,30.15,10.0,NW,8.1,-,N/A,,Clear,320,2013-12-01 01:55:00
8:15 PM,26.6,19.4,74,30.16,10.0,NNW,8.1,-,N/A,,Clear,330,2013-12-01 02:15:00
8:35 PM,26.6,19.4,74,30.16,10.0,NNW,4.6,-,N/A,,Clear,340,2013-12-01 02:35:00
8:55 PM,26.6,19.4,74,30.16,10.0,North,5.8,-,N/A,,Clear,350,2013-12-01 02:55:00
9:15 PM,26.6,19.4,74,30.17,10.0,North,5.8,-,N/A,,Clear,350,2013-12-01 03:15:00
9:35 PM,26.6,19.4,74,30.16,10.0,NNE,6.9,-,N/A,,Clear,20,2013-12-01 03:35:00
9:55 PM,24.8,19.4,80,30.17,10.0,North,5.8,-,N/A,,Clear,350,2013-12-01 03:55:00
10:15 PM,24.8,19.4,80,30.18,10.0,NNW,5.8,-,N/A,,Clear,340,2013-12-01 04:15:00
10:35 PM,24.8,19.4,80,30.18,10.0,North,8.1,-,N/A,,Clear,350,2013-12-01 04:35:00
10:55 PM,24.8,19.4,80,30.18,10.0,Calm,Calm,-,N/A,,Clear,0,2013-12-01 04:55:00
11:15 PM,24.8,19.4,80,30.19,10.0,NNW,5.8,-,N/A,,Clear,340,2013-12-01 05:15:00
11:35 PM,24.8,19.4,80,30.19,10.0,North,5.8,-,N/A,,Clear,350,2013-12-01 05:35:00
11:55 PM,24.8,19.4,80,30.19,10.0,North,4.6,-,N/A,,Clear,350,2013-12-01 05:55:00